RH
95 91 87 86 88 93 90 91 84 82 84 82 79 78 82 73 74 77 76 79 78 89 82 74 69 70 72 75 84 74 68 81 92 100 99 98 93 78 79 75 87 91 92 96 92 95 91 53 58 69 63 64 64 62
95 96 93 85 92 93 96 92 84 85 92 91 81 77 85 81 79 90 86 80 84 93 84 69 72 71 64 62 82 77 81 83 95 94 94 97 99 83 80 86 71 80 76 90 82 77 52 53 59 50 64 66 59 60
98 96 93 88 91 91 95 89 83 84 84 82 81 90 88 92 90 94 84 87 96 99 91 88 91 63 70 77 87 91 83 72 84 98 98 94 99 89 86 83 73 63 61 67 65 53 58 52 53 58 62 60 57 59
95 96 97 95 90 91 83 82 86 86 84 81 81 83 88 89 94 96 100 96 95 95 99 88 61 65 48 51 68 80 69 68 91 94 98 99 94 91 96 71 68 68 65 67 69 59 55 53 52 54 62 61 60 58
94 94 93 94 90 87 84 85 88 86 83 87 85 83 87 86 89 96 100 99 93 84 97 92 73 65 56 69 65 71 83 81 91 94 96 94 89 94 95 92 84 71 70 70 73 56 53 50 52 56 71 67 64 62
96 95 92 93 89 89 92 94 95 92 89 92 95 97 92 90 100 100 96 79 81 97 100 97 72 77 65 62 70 77 78 86 92 93 91 85 78 92 93 100 64 66 65 54 53 56 62 67 68 69 73 74 68 66
98 100 100 96 94 95 90 85 57 55 43 38 48 72 77 100 99 94 94 67 79 98 100 94 93 71 63 78 77 83 79 90 90 88 93 83 73 98 99 99 67 58 63 61 62 74 74 74 72 72 69 70 67 67
96 94 88 68 43 24 21 17 28 37 22 27 34 48 80 100 100 98 91 87 98 98 94 92 89 86 66 94 87 91 97 96 97 94 90 85 72 82 95 69 51 66 59 65 73 68 66 78 80 77 76 74 73 76
42 20 15 19 20 17 26 25 36 45 59 67 82 95 96 96 99 94 90 98 94 88 96 90 98 92 81 90 99 98 95 98 89 98 88 75 81 96 82 70 72 75 67 60 79 79 83 79 83 82 77 75 75 78
15 20 25 22 24 19 30 56 65 76 83 95 90 89 99 99 99 96 98 100 100 100 96 91 83 97 83 84 95 96 96 96 97 86 86 85 89 66 59 83 79 84 71 86 82 84 81 82 84 82 79 81 81 83
34 35 28 25 20 45 81 77 87 86 88 79 97 95 100 99 98 98 96 95 97 99 86 89 93 95 84 97 97 100 99 99 98 97 92 98 96 91 88 87 84 85 85 83 80 79 76 74 84 86 88 86 89 90
29 30 30 35 67 82 86 86 87 78 76 85 95 98 98 100 99 96 96 94 98 93 84 94 97 98 97 100 100 99 99 99 99 90 98 98 96 93 88 87 90 89 89 92 86 87 84 84 83 85 88 89 90 91
49 41 64 69 79 87 91 95 81 74 84 87 95 99 98 98 96 92 93 94 96 96 95 100 98 100 100 100 100 100 100 99 99 100 98 98 90 90 92 98 98 94 96 97 95 90 88 90 88 86 87 82 80 81
86 82 71 80 79 81 82 93 95 81 76 97 95 98 94 89 84 92 91 92 90 100 98 92 97 95 89 100 100 100 100 99 98 97 95 98 94 89 93 96 98 100 100 100 100 99 100 98 97 99 98 89 77 74
90 61 68 85 81 90 91 95 89 76 98 98 94 98 99 88 95 97 97 93 90 84 90 90 98 97 95 99 100 99 97 97 96 97 98 98 94 89 96 100 100 100 100 100 94 94 93 93 88 91 89 85 90 89
77 87 98 82 82 94 95 100 95 96 100 98 98 98 88 99 95 95 92 96 94 91 95 95 99 98 95 98 98 98 98 96 99 99 95 99 88 87 91 96 99 97 94 87 80 75 75 77 79 82 63 52 75 88
98 98 87 79 83 92 99 97 98 100 99 100 97 90 94 96 96 94 92 89 95 95 95 97 96 98 98 97 98 98 98 97 99 99 99 94 87 82 90 88 96 84 66 64 63 62 61 64 74 62 48 54 69 70
98 89 87 85 92 100 99 99 99 99 98 99 99 96 88 91 96 83 87 94 98 94 99 94 100 95 99 98 96 97 94 98 99 99 91 92 86 83 88 88 79 62 61 62 60 60 60 60 61 54 52 56 62 66
85 89 92 100 98 95 99 99 99 97 96 96 98 99 96 92 93 92 90 94 99 98 98 95 97 97 94 96 97 99 98 100 99 92 86 84 83 78 81 81 75 62 59 61 62 52 52 49 45 47 48 54 61 65
95 95 100 100 90 96 98 98 99 95 99 93 98 100 97 96 94 96 95 94 94 98 99 98 95 90 93 94 97 96 97 89 88 83 79 81 82 82 76 77 77 68 62 64 56 55 52 52 47 47 50 52 63 67
98 100 100 98 99 98 94 98 97 96 99 97 99 96 95 98 98 96 95 96 98 93 97 91 94 89 92 94 94 91 86 87 85 86 83 91 82 84 85 81 76 73 68 68 69 62 62 61 46 40 46 55 55 54
99 100 99 99 98 97 95 97 96 98 97 98 98 98 98 99 98 98 97 98 95 92 94 94 95 96 96 84 78 69 71 77 78 82 82 85 96 95 93 85 92 91 86 79 73 70 61 53 47 48 46 46 51 55
99 99 98 98 96 95 96 97 95 98 94 97 97 97 97 98 97 96 97 96 93 91 90 95 93 88 90 78 72 67 63 69 85 75 73 77 80 82 86 84 84 91 94 84 79 77 71 63 52 48 45 53 56 57
100 97 97 96 96 95 95 97 92 93 95 96 97 100 100 98 97 99 100 94 92 98 99 95 94 94 88 80 89 87 57 65 75 79 75 87 96 88 80 82 81 82 80 80 82 78 76 75 63 50 58 63 64 66
97 96 96 96 96 93 95 98 95 94 95 95 96 94 94 97 96 100 100 90 96 98 96 98 98 96 86 89 92 59 47 62 83 94 63 70 82 88 81 77 75 72 73 81 84 83 81 77 68 62 59 59 60 56
94 95 89 93 94 86 91 91 93 91 87 93 94 93 97 96 94 81 86 90 93 95 94 91 87 90 92 85 86 86 40 49 65 88 58 59 69 83 93 95 93 75 66 67 64 68 67 69 67 62 60 54 66 70
98 100 91 73 79 80 86 79 76 84 89 85 93 98 94 85 86 74 86 93 92 56 51 50 46 65 65 43 37 36 41 45 46 47 50 54 56 62 70 84 87 63 65 66 61 57 56 56 55 55 51 46 47 48
90 88 91 93 92 94 92 86 87 84 82 82 84 88 81 74 69 82 82 40 35 34 24 26 30 31 31 32 40 43 41 42 46 48 47 43 36 37 38 42 46 54 64 70 74 74 70 60 49 49 50 47 42 50
94 86 84 95 94 92 85 80 80 82 78 88 84 84 82 79 83 85 41 35 35 32 32 30 27 30 32 34 37 38 39 44 69 73 70 70 79 38 38 42 47 55 59 60 67 92 82 72 61 51 55 56 57 62
99 95 92 98 89 88 91 93 93 95 87 88 87 90 89 88 55 42 39 40 54 53 47 48 50 53 58 60 64 60 52 53 53 68 74 71 63 44 54 59 58 56 56 56 58 70 89 87 82 81 73 77 90 94
96 95 92 95 88 96 98 94 94 89 93 97 98 94 89 94 67 43 50 55 56 61 66 68 66 66 69 69 79 89 81 50 56 60 63 64 62 59 59 61 66 69 69 70 60 69 79 87 91 95 99 100 99 92
94 97 91 72 85 95 95 100 100 100 100 100 97 100 96 95 88 81 60 58 59 62 76 72 72 68 71 75 78 83 86 78 73 74 79 78 75 72 70 67 63 68 77 68 64 72 77 76 79 81 81 89 92 93
98 98 99 94 88 85 94 89 94 97 98 100 99 100 100 95 78 80 60 65 60 62 62 60 64 69 71 74 75 72 72 70 67 66 73 91 91 92 86 70 73 82 77 76 76 76 77 81 89 94 94 94 93 93
Wind_Speed
47 43 38 33 28 26 22 19 17 13 10 11 6 4 3 1 1 0 0 3 2 2 4 3 3 3 3 1 2 5 7 1 3 4 2 3 3 6 4 5 7 6 7 4 3 4 8 5 3 5 5 3 3 4
46 42 38 32 29 25 23 21 17 16 14 10 8 8 6 5 4 5 3 5 7 4 6 14 22 24 22 16 5 4 4 4 2 3 5 3 3 2 6 4 1 3 6 5 7 6 4 4 5 3 3 2 2 1
44 42 38 33 28 23 22 22 18 17 13 12 12 11 9 7 8 11 8 7 4 3 5 4 10 20 17 25 22 4 2 5 1 2 1 2 5 3 4 5 4 3 4 4 3 5 8 6 4 5 5 3 1 2
43 41 36 32 26 23 22 22 19 17 14 15 14 13 13 13 12 12 14 8 3 4 3 6 4 8 8 11 16 26 14 2 4 1 1 1 3 3 3 5 4 5 8 6 4 5 3 5 7 5 4 3 2 3
39 35 33 28 26 25 22 19 19 17 15 17 15 15 16 14 13 14 16 13 11 3 3 6 19 8 7 12 19 19 18 10 1 1 2 2 2 3 2 3 4 5 6 5 5 7 5 5 2 4 6 5 5 4
36 32 30 29 27 24 22 20 18 17 18 18 17 17 14 13 14 8 2 6 7 13 3 4 6 4 8 4 6 9 13 4 3 3 3 3 4 1 3 3 5 4 5 6 5 4 4 2 1 3 6 6 5 4
33 31 30 27 23 22 18 18 12 14 12 10 11 12 11 15 14 4 3 5 10 10 1 5 5 4 5 2 2 2 8 3 3 2 3 2 2 2 3 3 6 11 8 4 3 6 2 3 3 5 4 6 7 6
32 31 27 23 21 18 15 11 10 8 5 7 7 6 7 16 11 4 6 8 11 3 0 3 5 5 2 1 2 2 3 3 4 3 2 3 4 4 5 11 14 11 7 2 6 1 3 5 6 5 4 3 3 3
29 26 23 21 19 15 12 8 6 5 3 5 10 18 15 4 3 0 5 7 10 2 1 2 1 4 4 1 1 2 3 3 2 3 3 3 4 5 10 13 7 7 5 4 3 3 6 5 6 6 5 3 3 1
25 23 23 19 17 12 10 11 12 12 12 16 9 4 2 1 9 9 3 1 1 2 3 3 1 4 1 1 3 3 3 3 3 5 3 4 4 12 10 4 2 6 4 7 5 2 3 3 6 5 5 3 4 2
24 22 20 17 13 14 15 16 15 19 15 4 3 2 5 11 3 1 2 2 2 2 3 3 5 5 3 4 3 4 2 2 3 3 4 4 3 2 3 4 3 3 5 5 4 2 4 3 5 5 3 3 2 1
19 18 16 16 17 17 18 17 21 9 7 8 12 7 5 1 1 2 3 3 3 3 2 3 3 4 3 3 3 3 3 3 2 4 3 2 1 1 3 4 5 5 6 7 7 6 7 7 7 5 4 4 4 4
17 16 16 17 18 20 18 19 18 13 19 9 4 3 2 3 4 5 6 3 2 3 3 2 3 3 3 4 4 3 3 1 3 3 2 2 4 2 2 3 3 4 6 5 6 8 9 8 8 7 6 6 5 5
17 17 16 15 16 18 18 18 21 20 5 2 3 4 4 4 6 4 4 3 2 2 3 4 3 2 2 2 3 3 2 2 2 3 2 3 5 2 1 2 3 3 4 5 5 6 6 7 7 6 6 4 3 4
16 14 14 13 15 20 20 20 22 12 4 3 3 5 6 3 1 2 3 1 2 4 5 5 3 3 3 3 2 2 3 2 2 2 2 4 5 2 3 2 3 4 4 4 4 4 5 6 5 4 3 3 3 3
10 8 14 17 19 22 22 30 13 4 3 2 4 3 4 1 2 2 3 3 2 2 2 3 3 3 3 2 2 2 1 2 2 2 3 4 3 1 3 3 4 4 4 4 4 3 3 2 3 3 3 3 2 3
14 8 12 21 24 22 35 14 5 3 4 4 3 2 2 1 3 2 2 1 2 1 2 2 3 3 2 2 2 2 3 2 2 3 1 3 3 2 3 4 4 6 5 5 4 4 3 2 3 3 1 2 2 3
10 11 17 22 29 31 7 4 3 3 5 3 3 3 3 2 3 2 2 2 2 2 1 2 2 2 3 2 3 2 1 2 2 2 3 3 3 2 6 5 6 6 6 5 4 4 3 3 2 2 2 0 1 2
12 12 18 35 32 9 3 2 3 3 4 2 2 2 2 1 1 2 2 2 2 2 2 2 3 3 3 3 2 1 1 0 1 3 3 4 3 3 4 4 7 7 8 7 6 6 5 5 4 4 4 3 2 3
13 11 31 44 30 5 3 2 2 3 3 3 1 0 2 2 2 2 1 2 2 2 3 4 4 3 3 2 2 1 1 1 1 3 2 2 3 3 5 8 9 8 7 7 6 7 6 6 7 7 7 7 5 5
25 25 28 21 5 6 2 2 2 2 2 2 2 2 1 1 2 1 1 1 2 3 4 4 4 3 3 1 3 2 2 2 2 2 2 2 2 4 6 7 8 7 8 7 7 10 11 13 9 7 10 10 8 7
8 9 5 6 4 3 3 3 3 1 2 1 1 2 1 0 1 2 1 1 3 3 4 3 2 2 1 2 3 4 6 7 9 8 9 9 3 2 3 7 6 6 12 15 16 14 16 13 10 11 11 10 9 8
10 5 5 3 4 3 1 2 2 1 2 1 1 0 1 1 1 2 2 3 3 3 5 4 3 3 3 4 5 8 8 9 5 7 9 10 13 14 13 14 11 12 7 17 16 18 18 14 11 11 12 11 11 10
7 4 3 3 3 3 2 2 1 2 2 1 2 2 2 2 1 0 3 3 3 1 1 3 4 1 2 2 2 2 3 5 8 11 11 10 4 10 12 14 13 14 17 16 11 10 11 14 12 12 13 13 13 13
4 2 2 3 1 4 3 3 2 2 2 3 3 3 2 0 2 1 3 3 2 2 2 2 2 2 2 2 2 6 4 5 3 2 9 5 9 10 11 12 13 15 12 12 15 15 15 12 13 16 15 16 15 14
3 1 3 4 1 3 4 4 4 4 3 4 5 1 0 2 1 5 3 3 3 3 3 4 4 2 2 7 2 1 1 2 4 3 9 6 6 7 3 3 3 9 7 13 17 14 14 14 14 15 17 17 15 13
4 2 0 1 2 3 3 2 2 2 5 6 3 3 2 2 4 4 3 3 3 4 4 9 15 10 6 6 9 7 7 7 9 11 15 16 17 16 15 12 8 11 8 8 9 12 15 15 16 17 19 18 17 15
2 2 5 3 2 1 3 2 4 6 4 3 3 3 7 7 4 3 4 5 6 5 6 8 12 15 18 20 15 14 15 13 13 15 18 21 21 18 17 20 22 21 21 20 19 18 16 15 15 16 15 16 14 10
2 1 3 3 2 2 4 4 4 3 2 3 4 3 3 3 3 3 3 6 7 8 10 13 18 18 20 21 21 20 19 17 7 4 6 5 4 13 6 7 7 7 8 10 12 15 14 13 12 11 10 8 7 7
2 0 3 2 4 3 2 2 1 2 1 1 1 3 3 3 7 10 14 18 14 14 18 17 18 17 16 16 17 23 20 19 22 19 6 7 8 8 5 5 8 11 14 13 10 7 7 7 5 6 6 5 5 4
1 2 2 1 2 1 1 2 3 2 3 2 2 2 3 4 10 9 8 7 7 8 9 10 13 10 11 14 10 6 8 10 8 14 21 24 24 23 22 19 17 14 10 9 8 8 12 10 9 8 7 6 6 7
1 2 2 3 0 1 3 2 0 1 3 2 2 2 3 3 3 3 4 9 6 6 4 8 10 9 11 13 14 15 18 21 23 21 18 17 17 16 15 14 13 10 8 9 8 8 9 8 7 6 5 4 5 5
2 1 1 2 3 3 3 3 5 5 3 3 3 1 2 2 5 3 4 6 6 9 13 16 17 16 16 16 15 14 14 16 17 16 14 13 12 12 12 12 10 8 8 8 8 8 7 6 5 4 3 3 4 6
Wind_Direction
191 192 193 192 192 192 192 189 191 200 206 220 223 230 223 233 224 207 123 199 157 231 262 227 269 247 271 184 212 315 328 123 280 238 206 187 181 204 158 193 175 160 178 177 156 210 262 188 101 170 220 283 310 331
192 191 190 190 190 190 194 196 194 203 209 212 219 229 235 238 232 201 248 217 245 222 250 270 266 259 248 243 264 204 267 337 299 317 24 330 244 167 155 212 123 183 185 181 180 208 220 211 213 246 191 227 323 11
188 189 189 191 191 194 197 196 200 210 205 215 236 242 242 240 236 223 262 251 233 265 274 252 251 278 262 248 235 215 238 229 183 355 114 300 284 319 172 225 164 256 162 179 112 244 242 244 246 249 207 222 107 74
184 186 188 187 190 189 192 200 206 214 210 223 238 247 249 246 241 224 242 264 223 285 287 272 285 256 268 230 217 211 220 24 118 92 360 276 267 332 329 306 192 189 148 175 263 287 298 259 222 216 194 158 130 103
179 177 181 184 184 190 198 199 208 212 218 229 242 247 245 247 245 229 241 246 250 181 280 288 301 279 7 229 240 230 214 227 160 216 210 234 256 293 267 263 248 184 174 166 215 213 182 231 206 178 172 181 174 143
167 170 176 180 186 191 199 203 208 216 229 235 241 247 247 244 213 199 320 244 239 214 294 304 310 308 315 319 237 209 207 178 194 198 200 227 205 113 287 283 271 207 201 184 207 190 170 80 148 175 166 160 147 144
167 170 174 178 182 190 191 198 202 221 225 240 247 244 235 211 208 175 210 160 146 177 283 296 309 288 306 263 149 142 178 188 173 210 220 226 298 174 277 245 268 329 283 198 153 118 90 192 216 174 139 133 125 109
163 164 166 165 173 176 178 181 192 212 231 237 236 217 208 188 173 181 148 171 164 121 184 282 282 323 239 262 275 198 159 170 212 215 219 202 205 190 239 234 260 282 289 215 191 62 144 122 111 104 95 114 103 106
154 154 154 160 166 165 164 167 181 170 147 148 131 138 124 119 154 294 170 202 195 177 233 247 264 278 351 300 231 264 203 222 179 224 204 201 226 217 224 232 235 256 223 267 123 104 120 130 144 139 126 123 131 158
148 153 158 156 156 157 166 165 158 143 135 135 124 93 96 130 130 123 78 127 189 194 216 248 222 262 341 239 264 209 209 234 233 220 160 215 250 235 249 200 283 302 194 140 123 175 140 152 172 174 181 146 146 144
155 156 155 157 154 160 164 159 145 141 137 165 82 88 102 141 113 125 175 238 160 242 223 234 214 240 237 219 236 204 233 226 250 163 209 195 234 189 76 108 34 50 105 78 74 52 99 145 160 141 119 106 98 92
154 157 156 156 163 160 157 158 156 146 136 126 116 104 115 110 194 213 217 174 210 241 226 222 243 219 259 230 245 224 244 200 296 129 234 307 53 76 116 84 52 64 82 77 74 77 70 71 85 98 96 80 50 17
156 162 166 167 165 164 161 163 163 151 127 114 70 109 143 171 207 208 203 259 217 217 238 239 298 236 232 223 246 253 250 296 147 242 330 296 318 28 105 124 94 64 75 84 79 79 86 86 82 90 93 67 47 35
166 174 174 170 166 167 170 168 169 154 111 108 147 176 196 207 223 198 184 191 211 246 277 297 257 243 254 249 259 267 313 317 312 329 311 323 326 314 74 69 93 85 83 87 89 94 98 98 94 90 84 72 54 33
176 177 173 172 172 170 168 168 165 149 116 134 152 214 212 228 266 282 196 249 259 287 284 286 253 244 245 268 248 318 338 299 250 252 282 328 319 181 155 130 133 129 127 112 111 107 109 124 130 115 82 52 37 29
171 174 203 186 179 170 167 163 153 112 96 152 223 232 224 165 287 251 241 256 221 260 262 244 266 259 262 274 316 256 305 250 314 320 316 319 307 226 167 158 154 158 142 143 140 140 133 135 150 148 119 53 47 41
186 207 191 192 180 168 169 149 140 160 180 203 226 219 204 227 203 212 184 179 31 264 261 290 265 256 320 309 287 209 205 279 305 300 293 276 285 207 191 161 168 168 162 159 151 151 145 147 161 160 163 12 26 22
208 199 198 178 164 151 129 139 134 173 209 205 173 216 197 184 168 207 220 177 204 234 208 252 307 257 256 231 272 260 281 316 265 265 301 307 298 244 191 189 185 185 181 182 182 176 188 179 191 231 215 225 305 312
199 206 193 173 155 127 125 148 164 208 220 193 248 227 158 216 138 128 181 223 239 280 296 252 239 222 234 221 249 232 261 230 313 307 302 320 312 252 215 205 190 185 189 185 197 210 224 231 243 240 227 229 251 283
214 212 177 162 158 111 114 136 163 126 174 216 69 204 160 174 126 89 37 250 191 248 228 229 226 221 198 230 190 200 240 230 288 333 330 355 303 261 227 216 214 216 209 217 226 227 225 239 244 236 229 232 232 249
118 115 135 138 89 81 90 138 104 192 167 136 225 111 227 5 97 142 222 132 223 230 233 233 236 250 257 258 164 150 260 231 235 223 265 293 316 299 277 259 239 225 216 226 230 243 237 241 250 237 225 230 243 253
118 131 105 104 86 71 83 35 138 198 88 144 89 88 123 145 184 162 25 179 238 230 215 220 228 216 229 210 213 222 254 266 268 262 265 266 267 265 260 254 215 229 231 237 237 239 251 260 257 237 233 237 243 251
122 89 73 74 90 62 82 11 99 357 107 147 37 58 226 268 251 25 259 233 257 236 221 221 239 243 243 284 278 275 270 262 265 270 277 273 271 272 271 268 257 246 255 266 260 254 256 262 250 237 235 234 243 252
102 59 75 83 85 120 79 42 48 101 85 140 169 230 235 214 12 113 250 249 249 297 218 221 187 304 323 324 282 269 284 265 273 292 293 269 274 276 270 271 270 261 258 269 272 269 265 255 242 231 232 236 244 254
99 40 122 105 28 105 108 135 140 121 183 181 194 254 236 42 195 240 236 266 258 244 228 153 126 149 181 265 269 271 261 240 226 279 320 279 262 284 292 285 278 272 268 254 251 252 256 258 242 234 236 238 244 256
107 258 112 165 152 149 175 121 157 181 165 188 223 240 115 126 116 241 230 233 237 213 191 187 181 170 257 220 232 251 239 246 241 235 292 278 276 259 265 286 306 305 283 253 253 254 257 252 246 239 241 244 246 255
127 206 105 38 100 107 80 69 97 169 183 199 185 160 119 158 244 252 273 237 226 243 258 241 210 196 208 222 236 261 268 272 265 275 287 285 286 280 267 255 254 280 291 290 275 262 261 260 253 248 250 258 260 260
116 122 144 170 94 69 139 181 186 201 201 186 130 180 174 192 231 234 212 241 244 270 272 251 242 244 255 263 274 283 289 290 291 289 288 288 283 283 276 270 270 272 270 269 267 269 270 271 267 264 261 263 272 267
78 99 123 96 115 189 210 190 207 225 159 156 157 208 236 226 239 225 256 258 283 280 276 277 273 278 282 287 289 288 284 274 262 271 272 271 303 294 266 271 283 293 298 288 269 253 265 268 268 268 264 253 252 260
180 107 101 124 154 203 231 164 243 285 276 179 284 308 294 275 267 282 286 282 270 268 280 284 287 288 283 292 294 297 289 272 251 229 227 237 247 271 261 261 275 290 295 293 293 247 214 233 202 217 221 226 237 259
100 96 91 97 157 249 249 312 317 337 16 344 332 199 257 308 309 290 291 302 307 301 294 298 303 298 280 284 278 283 299 311 292 266 259 261 266 272 279 285 287 285 270 265 259 230 216 223 225 229 238 247 261 276
34 80 140 109 160 313 21 49 10 41 339 360 291 344 320 4 289 286 328 344 345 17 8 327 312 314 305 291 280 274 273 277 281 283 279 275 274 275 272 269 272 270 254 239 224 212 211 213 207 211 226 247 266 281
59 56 61 88 35 20 344 44 25 339 2 344 295 231 235 209 244 281 315 345 354 338 336 331 323 315 309 304 303 300 290 283 280 278 275 279 282 279 274 259 248 231 213 204 196 194 191 185 182 190 209 246 277 290